Location: Gollag?dem
(17.0207°N, 80.7261°E)
Time: 06:45:02
(UTC+00:00)

Meteor 1-16 Rocket - Pass Details

Date: 03 August 2024
Orbit: 789 x 906 km, 81.2° (Epoch: 10 September)

Event Time Altitude Azimuth Distance (km) Brightness Sun altitude
Exits shadow 22:51:32 - 182° (S) 2,800 6.6 -20.0°
Reaches altitude 10° 22:52:07 10° 182° (S) 2,579 6.5 -19.8°
Maximum altitude 22:58:02 81° 95° (E) 913 4.4 -18.6°
Drops below altitude 10° 23:03:51 10° 9° (N) 2,546 7.1 -17.3°
Sets 23:06:16 0° 8° (N) 3,472 7.9 -16.8°
